China Lake Naws (Armitage Field) Airport China Lake US
ICAO: KNID
IATA: NID
Category: Medium
Scheduled Services: No

Elevation: 2283 ft
TransAlt. 18000 ft.

Airport Communications:
JOSHUA APP/DEP:133.65
VFR ADVSY SVC:133.65
ATIS:32.237
GND:36.02
PMSV METRO:34.315
TWR:120.15

KNID Zoom In..

Runways:

(A) RW 03 length 9993 ft width 200 ft
---- / hdg 28

(B) RW 08 length 7702 ft width 150 ft
---- / hdg 76

(C) RW 14 length 9013 ft width 150 ft
---- / hdg 140

(D) RW 21 length 9993 ft width 200 ft
---- / hdg 208

(E) RW 26 length 7702 ft width 150 ft
---- / hdg 256

(F) RW 32 length 9013 ft width 150 ft
---- / hdg 320

Location; KNID
Day. 23 / Time. 06.56 Zulu
* Altimeter: 30.02
* Temperature: 31° c. 87.8°f.
* Wind from: 200° Speed 05 kn.
Dewpoint: 11° c.
Visibility: 10 Statute Miles.
Clouds: Clear (automated report).

KNID 230656Z AUTO 20005KT 10SM CLR 31/11 A3002 RMK AO2 SLP137 T03110106 $


Wind From 200°
Speed 05 kn.

 
 
jpsmedia.com for Web Design worldairports.se 2018   terms of use